sat.trackr.live / text

‹ back to catalog

STARLINK-36814

NORAD 67904 · 2026-036A

PAYLOAD ACTIVE UNKNOWN

§ Identity

Operator
Country
US
Launch date
2026-02-22
Launch site
AFETR
Launch vehicle
Mass (kg)
RCS (m²)

Purposes: comms

External: N2YO · Heavens-Above · Gunter

§ Orbital elements

Epoch: 2026-09-19T22:16:29.036640Z

Period
94.27 min
Inclination
42.9987°
Eccentricity
0.0000214
Mean motion
15.27591777 rev/d
Perigee alt
482.9 km
Apogee alt
483.2 km
Semi-major
6,861.2 km
B*
3.8694e-4
RAAN
228.7440°
Arg perigee
232.8634°
Mean anomaly
127.2198°
Rev number
3,342

§ Raw data

STARLINK-368141 67904U 26036A   26262.92811385  .00010405  00000+0  38694-3 0  99902 67904  42.9987 228.7440 0000214 232.8634 127.2198 15.27591777 33422

JSON: /api/v1/satellites/67904 · /tle

For live sub-satellite position, see the globe view (requires WebGL).

§ Visibility from observer

Set your observer location to see the next 7 days of passes ≥ 10°. The values pass through the URL so the page stays shareable.

No JS? Fill the form by hand. The geolocation button needs JavaScript.